DW1345 Weather Reports


Display with metric or nautical units.
time (UTC)temp
F
wind
direction
speed
MPH
gust
MPH
rain 1hr
in
rain 24hr
in
rain mn
in
humidity
%
barometer
mb
20260906181603 53 256 3.0 0.0 0.00 0.00 0.00 84 1009.7
20260906180121 53 279 2.0 0.0 0.00 0.00 0.00 84 1009.7
20260906174620 53 277 1.0 0.0 0.00 0.00 0.00 84 1009.6
20260906173058 53 252 2.0 0.0 0.00 0.00 0.00 84 1009.4
20260906171612 53 278 1.0 0.0 0.00 0.00 0.00 85 1009.5
20260906164556 53 288 1.0 0.0 0.00 0.00 0.00 85 1009.4
20260906163058 54 292 1.0 0.0 0.00 0.00 0.00 85 1009.4
20260906161619 54 260 1.0 0.0 0.00 0.00 0.00 85 1009.5
20260906160055 54 277 1.0 0.0 0.00 0.00 0.00 85 1009.4
20260906154554 54 247 3.0 0.0 0.00 0.00 0.00 84 1009.5
20260906153109 55 246 1.0 0.0 0.00 0.00 0.00 82 1009.3
20260906151552 55 240 1.0 0.0 0.00 0.00 0.00 81 1009.3
20260906150051 55 226 1.0 0.0 0.00 0.00 0.00 81 1009.3
20260906144550 55 282 1.0 0.0 0.00 0.00 0.00 80 1009.1
20260906143050 54 284 2.0 0.0 0.00 0.00 0.00 79 1009.0
20260906141603 55 274 2.0 0.0 0.00 0.00 0.00 78 1008.9
20260906140047 55 282 2.0 0.0 0.00 0.00 0.00 78 1008.8
20260906134548 56 226 2.0 0.0 0.00 0.00 0.00 73 1008.7
20260906133050 58 208 1.0 0.0 0.00 0.00 0.00 68 1008.5
20260906131558 58 224 0.0 0.0 0.00 0.00 0.00 69 1008.5
20260906130053 58 227 0.0 0.0 0.00 0.00 0.00 70 1008.6
20260906124541 58 212 0.0 0.0 0.00 0.00 0.00 67 1008.5
20260906123041 59 128 0.0 0.0 0.00 0.00 0.00 70 1008.4
20260906121541 58 127 1.0 0.0 0.00 0.00 0.00 70 1008.4
20260906120037 59 94 2.0 0.0 0.00 0.00 0.00 69 1008.4
20260906114544 60 138 2.0 0.0 0.00 0.00 0.00 68 1008.5
20260906113033 59 140 0.0 0.0 0.00 0.00 0.00 70 1008.3
20260906111531 58 25 0.0 0.0 0.00 0.00 0.00 70 1008.4
20260906110026 57 32 0.0 0.0 0.00 0.00 0.00 72 1008.4
20260906104526 57 32 0.0 0.0 0.00 0.00 0.00 72 1008.2
20260906103022 57 54 0.0 0.0 0.00 0.00 0.00 74 1008.4
20260906101521 57 54 0.0 0.0 0.00 0.00 0.00 72 1008.3
20260906100028 56 86 0.0 0.0 0.00 0.00 0.00 74 1008.4
20260906094512 55 194 0.0 0.0 0.00 0.00 0.00 80 1008.4
20260906093015 54 194 0.0 0.0 0.00 0.00 0.00 80 1008.1
20260906091511 54 194 0.0 0.0 0.00 0.00 0.00 81 1008.2
20260906090006 53 194 0.0 0.0 0.00 0.00 0.00 85 1008.0
20260906084510 52 194 0.0 0.0 0.00 0.00 0.00 86 1008.1
20260906083005 52 194 0.0 0.0 0.00 0.00 0.00 87 1008.1
20260906081502 53 194 0.0 0.0 0.00 0.00 0.00 88 1007.8
20260906080100 53 194 0.0 0.0 0.00 0.00 0.00 91 1007.9
20260906074557 52 194 0.0 0.0 0.00 0.00 0.00 93 1007.8
20260906073055 51 195 0.0 0.0 0.00 0.00 0.00 93 1007.8
20260906071554 51 195 0.0 0.0 0.00 0.00 0.00 94 1007.8
20260906070053 51 195 0.0 0.0 0.00 0.00 0.00 94 1007.7
20260906064551 50 195 0.0 0.0 0.00 0.00 0.00 95 1007.7
20260906063048 50 195 0.0 0.0 0.00 0.00 0.00 95 1007.6
20260906061550 49 195 0.0 0.0 0.00 0.00 0.00 95 1007.5
20260906060053 48 195 0.0 0.0 0.00 0.00 0.00 95 1007.4
20260906054545 48 195 0.0 0.0 0.00 0.00 0.00 95 1007.3
20260906053039 47 195 0.0 0.0 0.00 0.00 0.00 95 1007.4
20260906051538 47 195 0.0 0.0 0.00 0.00 0.00 96 1007.2
20260906050033 45 195 0.0 0.0 0.00 0.00 0.00 96 1007.1
20260906044531 43 196 0.0 0.0 0.00 0.00 0.00 95 1006.9
20260906043033 42 196 0.0 0.0 0.00 0.00 0.00 95 1006.8
20260906041529 42 196 0.0 0.0 0.00 0.00 0.00 94 1006.8
20260906040027 42 196 0.0 0.0 0.00 0.00 0.00 94 1006.6
20260906034546 42 196 0.0 0.0 0.00 0.00 0.00 94 1006.5
20260906033023 43 196 0.0 0.0 0.00 0.00 0.00 94 1006.5
20260906031528 43 196 0.0 0.0 0.00 0.00 0.00 94 1006.5
20260906030020 43 196 0.0 0.0 0.00 0.00 0.00 94 1006.3
20260906024518 43 196 0.0 0.0 0.00 0.00 0.00 94 1006.2
20260906023017 44 196 0.0 0.0 0.00 0.00 0.00 94 1006.3
20260906021516 44 196 0.0 0.0 0.00 0.00 0.00 94 1006.1
20260906020013 44 196 0.0 0.0 0.00 0.00 0.00 94 1006.0
20260906014513 44 196 0.0 0.0 0.00 0.00 0.00 94 1005.9
20260906013011 44 196 0.0 0.0 0.00 0.00 0.00 94 1005.8
20260906011509 44 196 0.0 0.0 0.00 0.00 0.00 94 1005.7
20260906010009 43 196 0.0 0.0 0.00 0.00 0.00 94 1005.6
20260906004506 43 196 0.0 0.0 0.00 0.00 0.00 93 1005.5
20260906003005 44 197 0.0 0.0 0.00 0.00 0.00 93 1005.4
20260906001502 44 197 0.0 0.0 0.00 0.00 0.00 93 1005.3
20260906000100 45 197 0.0 0.0 0.00 0.00 0.00 93 1005.2
20260905234557 45 197 0.0 0.0 0.00 0.00 0.00 93 1005.1
20260905233057 45 197 0.0 0.0 0.00 0.00 0.00 93 1004.9
20260905231556 45 197 0.0 0.0 0.00 0.00 0.00 93 1005.0
20260905230054 45 197 0.0 0.0 0.00 0.00 0.00 93 1004.8
20260905224552 45 197 0.0 0.0 0.00 0.00 0.00 92 1004.6
20260905223055 45 197 0.0 0.0 0.00 0.00 0.00 92 1004.7
20260905221548 45 197 0.0 0.0 0.00 0.00 0.00 92 1004.7
20260905220046 46 197 0.0 0.0 0.00 0.00 0.00 92 1004.4
20260905214547 46 197 0.0 0.0 0.00 0.00 0.00 92 1004.2
20260905213042 46 197 0.0 0.0 0.00 0.00 0.00 91 1004.2
20260905211539 47 197 0.0 0.0 0.00 0.00 0.00 91 1003.9
20260905210050 47 197 0.0 0.0 0.00 0.00 0.00 90 1003.7
20260905204535 48 197 0.0 0.0 0.00 0.00 0.00 90 1003.5
20260905203032 48 197 0.0 0.0 0.00 0.00 0.00 89 1003.4
20260905201531 49 197 0.0 0.0 0.00 0.00 0.00 89 1003.4
20260905200032 50 197 0.0 0.0 0.00 0.00 0.00 88 1003.2
20260905194521 51 197 0.0 0.0 0.00 0.00 0.00 88 1003.0
20260905193021 52 197 0.0 0.0 0.00 0.00 0.00 88 1003.0
20260905191520 52 197 0.0 0.0 0.00 0.00 0.00 87 1002.9
20260905190015 53 197 0.0 0.0 0.00 0.00 0.00 87 1002.6
20260905184526 54 198 0.0 0.0 0.00 0.00 0.00 86 1002.6
20260905183012 54 198 0.0 0.0 0.00 0.00 0.00 85 1002.5